FW7585 Weather Reports


time (UTC)temp
F
wind
direction
speed
knots
gust
knots
rain 1hr
in
rain 24hr
in
rain mn
in
humidity
%
barometer
mb
20260506042003 57 0 0.0 0.0 0.00 0.02 0.02 81 1018.2
20260506041545 56 0 0.0 0.0 0.00 0.02 0.02 81 1017.4
20260506041003 57 0 0.0 0.0 0.00 0.02 0.02 81 1018.1
20260506040047 56 0 0.0 0.0 0.00 0.02 0.02 80 1017.1
20260506040003 57 0 0.0 0.0 0.00 0.02 0.02 81 1017.9
20260506035004 57 343 0.9 4.3 0.00 0.02 0.02 80 1017.9
20260506034539 56 0 0.0 5.2 0.00 0.02 0.02 80 1017.0
20260506034003 57 352 0.9 5.2 0.00 0.02 0.02 80 1017.7
20260506033041 57 0 1.7 5.2 0.00 0.02 0.02 79 1016.6
20260506033004 57 340 1.7 5.2 0.00 0.02 0.02 80 1017.5
20260506032003 57 336 0.0 3.5 0.00 0.02 0.02 79 1017.5
20260506031544 57 0 0.9 3.5 0.00 0.02 0.02 79 1016.5
20260506031003 57 297 0.0 1.7 0.00 0.02 0.02 79 1017.4
20260506030044 57 0 0.9 3.5 0.00 0.02 0.02 79 1016.4
20260506030003 58 320 0.9 3.5 0.00 0.02 0.02 79 1017.3
20260506025003 58 315 1.7 4.3 0.00 0.02 0.02 78 1017.1
20260506024545 58 0 0.9 4.3 0.00 0.02 0.02 77 1016.2
20260506024003 59 329 1.7 4.3 0.00 0.02 0.02 77 1017.0
20260506023055 59 329 1.7 5.2 0.00 0.02 0.02 75 1016.0
20260506023003 60 325 1.7 4.3 0.00 0.02 0.02 76 1016.8
20260506022003 60 330 2.6 6.1 0.00 0.02 0.02 76 1016.8
20260506021550 60 289 2.6 7.8 0.00 0.02 0.02 75 1016.0
20260506021003 60 346 3.5 7.8 0.00 0.02 0.02 74 1016.8
20260506020047 60 336 1.7 7.0 0.00 0.02 0.02 74 1015.9
20260506020024 60 341 2.6 7.0 0.00 0.02 0.02 75 1016.8
20260506015003 60 330 2.6 5.2 0.00 0.02 0.02 74 1016.8
20260506014545 60 319 1.7 5.2 0.00 0.02 0.02 73 1015.9
20260506014003 61 336 2.6 6.1 0.00 0.02 0.02 74 1016.8
20260506013043 60 325 1.7 5.2 0.00 0.02 0.02 72 1016.0
20260506013003 61 324 2.6 5.2 0.00 0.02 0.02 73 1016.9
20260506012003 61 332 2.6 7.0 0.00 0.02 0.02 71 1016.7
20260506011545 61 335 1.7 6.1 0.00 0.02 0.02 71 1015.8
20260506011003 61 340 2.6 6.1 0.00 0.02 0.02 71 1016.7
20260506010051 61 332 1.7 10.4 0.00 0.02 0.02 70 1015.8
20260506010003 62 330 2.6 10.4 0.00 0.02 0.02 70 1016.7
20260506005003 62 331 2.6 7.8 0.00 0.02 0.02 70 1016.7
20260506004546 61 352 1.7 8.7 0.00 0.02 0.02 70 1015.8
20260506004024 61 330 2.6 8.7 0.00 0.02 0.02 71 1016.6
20260506003037 61 309 3.5 9.6 0.00 0.02 0.02 71 1015.7
20260506003003 61 339 3.5 9.6 0.00 0.02 0.02 72 1016.6
20260506002003 62 319 2.6 9.6 0.00 0.02 0.02 70 1016.5
20260506001548 61 218 2.6 7.8 0.00 0.02 0.02 72 1015.5
20260506001003 62 323 3.5 8.7 0.00 0.02 0.02 71 1016.5
20260506000045 61 236 3.5 9.6 0.00 0.02 0.02 72 1015.5
20260506000003 62 332 3.5 9.6 0.00 0.02 0.02 72 1016.4
20260505235003 62 302 2.6 10.4 0.00 0.02 0.02 73 1016.5
20260505234603 61 316 2.6 10.4 0.00 0.02 0.02 71 1015.6
20260505234003 62 318 3.5 8.7 0.00 0.02 0.02 72 1016.5
20260505233044 61 249 3.5 8.7 0.00 0.02 0.02 71 1015.8
20260505233004 62 332 3.5 8.7 0.00 0.02 0.02 71 1016.5
20260505232003 62 332 4.3 11.3 0.00 0.02 0.02 72 1016.6
20260505231539 62 360 5.2 11.3 0.00 0.02 0.02 71 1015.7
20260505231003 62 320 3.5 7.8 0.00 0.02 0.02 72 1016.6
20260505230037 62 274 3.5 7.8 0.00 0.02 0.02 72 1015.7
20260505230004 62 310 2.6 7.8 0.00 0.02 0.02 72 1016.6
20260505225025 62 325 3.5 8.7 0.00 0.02 0.02 72 1016.5
20260505224537 62 271 3.5 12.2 0.00 0.02 0.02 71 1015.7
20260505224004 63 334 3.5 12.2 0.00 0.02 0.02 70 1016.6
20260505223046 63 359 2.6 8.7 0.00 0.02 0.02 71 1015.7
20260505223025 63 327 3.5 8.7 0.00 0.02 0.02 72 1016.5
20260505222003 63 318 3.5 10.4 0.00 0.02 0.02 69 1016.6
20260505221544 62 299 3.5 10.4 0.00 0.02 0.02 70 1015.9
20260505221024 63 316 3.5 8.7 0.00 0.02 0.02 70 1016.6
20260505220048 62 4 1.7 6.1 0.00 0.02 0.02 69 1015.7
20260505220025 63 325 2.6 6.1 0.00 0.02 0.02 70 1016.6
20260505215004 63 304 3.5 7.8 0.00 0.02 0.02 68 1016.8
20260505214601 62 289 3.5 7.8 0.00 0.02 0.02 70 1015.8
20260505214004 62 321 2.6 7.8 0.00 0.02 0.02 70 1016.8
20260505213042 61 250 2.6 7.8 0.00 0.02 0.02 70 1015.9
20260505213003 61 316 2.6 7.0 0.00 0.02 0.02 71 1016.8
20260505212004 61 325 3.5 8.7 0.00 0.02 0.02 71 1016.9
20260505211537 61 286 2.6 8.7 0.00 0.02 0.02 70 1016.0
20260505211004 61 315 1.7 6.1 0.00 0.02 0.02 72 1016.9
20260505210036 61 1 0.9 8.7 0.00 0.02 0.02 70 1016.0
20260505210004 61 316 2.6 7.0 0.00 0.02 0.02 72 1016.9
20260505205004 61 319 2.6 8.7 0.00 0.02 0.02 71 1016.9
20260505204542 61 360 0.9 7.0 0.00 0.02 0.02 70 1015.9
20260505204003 62 324 2.6 7.0 0.00 0.02 0.02 70 1016.8
20260505203047 61 290 2.6 7.8 0.00 0.02 0.02 70 1015.9
20260505203004 62 327 3.5 7.8 0.00 0.02 0.02 70 1016.8
20260505202004 62 323 3.5 10.4 0.00 0.02 0.02 71 1017.0
20260505201539 61 313 2.6 10.4 0.00 0.02 0.02 70 1016.0
20260505201003 62 325 2.6 10.4 0.00 0.02 0.02 72 1016.9
20260505200041 62 360 3.5 8.7 0.00 0.02 0.02 71 1016.2
20260505200003 62 302 3.5 8.7 0.00 0.02 0.02 72 1017.0
20260505195024 62 312 3.5 7.0 0.00 0.02 0.02 72 1017.1
20260505194544 61 339 1.7 7.0 0.00 0.02 0.02 72 1016.3
20260505194003 62 323 2.6 5.2 0.00 0.02 0.02 74 1016.9
20260505193049 60 360 1.7 6.1 0.00 0.02 0.02 75 1016.3
20260505193024 61 298 2.6 6.1 0.00 0.02 0.02 76 1017.1
20260505192004 61 318 2.6 10.4 0.00 0.02 0.02 74 1017.1
20260505191537 60 360 1.7 10.4 0.00 0.02 0.02 74 1016.2
20260505191004 60 321 2.6 8.7 0.00 0.02 0.02 74 1017.2
20260505190044 59 344 2.6 8.7 0.00 0.02 0.02 76 1016.2
20260505190024 60 326 3.5 8.7 0.00 0.02 0.02 77 1017.1
20260505185003 59 327 2.6 7.0 0.00 0.02 0.02 81 1017.0
20260505184539 58 245 0.9 6.1 0.00 0.02 0.02 83 1016.1
20260505184003 58 330 2.6 6.1 0.00 0.02 0.02 82 1017.1
20260505183044 57 354 1.7 4.3 0.00 0.02 0.02 83 1016.3
20260505183003 58 321 1.7 4.3 0.00 0.02 0.02 83 1017.2
20260505182003 57 326 1.7 6.1 0.00 0.02 0.02 84 1017.1
20260505181544 57 321 0.9 6.1 0.00 0.02 0.02 83 1016.3
20260505181003 57 328 1.7 6.1 0.00 0.02 0.02 85 1016.9
20260505180003 57 318 0.9 5.2 0.00 0.02 0.02 85 1017.0
20260505175024 57 326 0.9 4.3 0.00 0.02 0.02 87 1016.8
20260505174556 56 0 1.7 6.1 0.00 0.02 0.02 86 1015.9
20260505174003 56 343 0.9 6.1 0.00 0.02 0.02 88 1016.7
20260505173044 55 310 0.9 5.2 0.00 0.02 0.02 88 1015.9
20260505173024 56 340 0.9 5.2 0.00 0.02 0.02 88 1016.7
20260505172003 56 0 0.0 0.0 0.00 0.02 0.02 89 1016.7
20260505171545 55 0 0.0 2.6 0.00 0.02 0.02 89 1015.8
20260505171003 55 332 0.0 3.5 0.00 0.02 0.02 88 1016.6
20260505170044 55 0 0.0 3.5 0.00 0.02 0.02 88 1015.8
20260505170003 55 353 0.0 3.5 0.00 0.02 0.02 88 1016.7
20260505165003 55 338 0.9 6.1 0.00 0.02 0.02 87 1016.6
20260505164548 55 1 0.0 3.5 0.00 0.02 0.02 87 1015.7
20260505164024 55 343 0.0 3.5 0.00 0.02 0.02 88 1016.5
20260505163041 54 0 0.0 5.2 0.00 0.02 0.02 87 1015.7
20260505163003 55 345 0.0 5.2 0.00 0.02 0.02 88 1016.5
20260505162003 54 347 0.0 1.7 0.00 0.02 0.02 88 1016.5
20260505161538 54 0 0.0 6.1 0.00 0.02 0.02 88 1015.6
20260505161003 54 341 0.0 6.1 0.00 0.02 0.02 89 1016.3
20260505153043 53 0 0.0 3.5 0.00 0.02 0.02 90 1015.3
20260505153003 54 356 0.0 3.5 0.00 0.02 0.02 90 1016.1
20260505152024 53 326 0.0 1.7 0.00 0.02 0.02 91 1016.0
20260505151540 53 0 0.0 1.7 0.00 0.02 0.02 91 1015.1
20260505151003 53 0 0.0 0.0 0.00 0.02 0.02 92 1016.0
20260505125004 52 0 0.0 0.0 0.00 0.02 0.02 92 1015.5
20260505124546 51 0 0.0 0.0 0.00 0.02 0.02 92 1014.7
20260505124003 52 0 0.0 0.0 0.01 0.02 0.02 92 1015.6
20260505123051 51 0 0.0 0.0 0.01 0.02 0.02 91 1014.7
20260505123003 52 0 0.0 0.0 0.01 0.02 0.02 92 1015.5
20260505122004 52 0 0.0 0.0 0.01 0.02 0.02 92 1015.4
20260505121543 51 0 0.0 0.0 0.01 0.02 0.02 92 1014.5
20260505121004 52 0 0.0 0.0 0.01 0.02 0.02 92 1015.1
20260505120041 51 0 0.0 0.0 0.01 0.02 0.02 92 1014.5
20260505120004 52 0 0.0 0.0 0.01 0.02 0.02 92 1015.4
20260505115024 52 0 0.0 0.0 0.01 0.02 0.02 92 1015.5
20260505114537 51 0 0.0 0.0 0.01 0.02 0.02 92 1014.4
20260505114003 52 0 0.0 0.0 0.00 0.01 0.01 92 1015.5
20260505113044 51 0 0.0 0.0 0.00 0.01 0.01 92 1014.8
20260505113003 52 0 0.0 0.0 0.00 0.01 0.01 92 1015.6
20260505112003 52 0 0.0 0.0 0.01 0.01 0.01 92 1015.7
20260505111544 51 0 0.0 0.0 0.01 0.01 0.01 92 1014.7
20260505111024 51 0 0.0 0.0 0.01 0.01 0.01 92 1015.5
20260505102003 51 0 0.0 0.0 0.00 0.00 0.00 91 1015.4
20260505101538 51 0 0.0 0.0 0.00 0.00 0.00 90 1014.7
20260505101003 51 0 0.0 0.0 0.00 0.00 0.00 91 1015.5
20260505100037 51 0 0.0 0.0 0.00 0.00 0.00 90 1014.7
20260505100003 51 0 0.0 0.0 0.00 0.00 0.00 90 1015.7
20260505095003 51 0 0.0 0.0 0.00 0.00 0.00 90 1015.7
20260505094547 51 0 0.0 0.0 0.00 0.00 0.00 89 1014.9
20260505094003 51 0 0.0 0.0 0.00 0.00 0.00 89 1015.8
20260505093047 51 0 0.0 0.0 0.00 0.00 0.00 89 1015.1
20260505093003 51 0 0.0 0.0 0.00 0.00 0.00 89 1016.1
20260505092003 51 0 0.0 0.0 0.00 0.00 0.00 89 1015.9
20260505091559 51 0 0.0 0.0 0.00 0.00 0.00 88 1015.1
20260505091003 51 0 0.0 0.0 0.00 0.00 0.00 89 1016.1
20260505090038 51 0 0.0 0.0 0.00 0.00 0.00 88 1015.4
20260505090003 51 0 0.0 0.0 0.00 0.00 0.00 88 1016.3
20260505085003 52 0 0.0 0.0 0.00 0.00 0.00 88 1016.3
20260505084538 51 0 0.0 0.0 0.00 0.00 0.00 87 1015.4
20260505084003 52 0 0.0 0.0 0.00 0.00 0.00 87 1016.1
20260505083044 51 0 0.0 0.0 0.00 0.00 0.00 86 1015.4
20260505083003 52 0 0.0 0.0 0.00 0.00 0.00 87 1016.3
20260505082003 52 0 0.0 0.0 0.00 0.00 0.00 86 1016.3
20260505081555 51 0 0.0 0.0 0.00 0.00 0.00 86 1015.6
20260505081003 52 0 0.0 0.0 0.00 0.00 0.00 86 1016.4
20260505080051 52 0 0.0 0.0 0.00 0.00 0.00 85 1015.7
20260505080003 52 0 0.0 0.0 0.00 0.00 0.00 85 1016.6
20260505075003 52 0 0.0 0.0 0.00 0.00 0.00 84 1016.7
20260505074542 52 0 0.0 0.0 0.00 0.00 0.00 83 1015.9
20260505074003 53 0 0.0 0.0 0.00 0.00 0.00 83 1016.6
20260505073048 52 0 0.0 0.0 0.00 0.00 0.00 82 1015.8
20260505073003 53 0 0.0 0.0 0.00 0.00 0.00 82 1016.7
20260505072003 53 0 0.0 0.0 0.00 0.00 0.00 82 1016.5
20260505071554 52 0 0.0 0.0 0.00 0.00 0.00 82 1015.6
20260505071003 53 0 0.0 0.0 0.00 0.00 0.00 82 1016.5
20260505070049 52 0 0.0 0.0 0.00 0.00 0.00 81 1015.6
20260505070004 53 0 0.0 0.0 0.00 0.00 0.00 82 1016.4
20260505065003 53 0 0.0 0.0 0.00 0.00 0.00 82 1016.3
20260505064543 52 0 0.0 0.0 0.00 0.00 0.00 81 1015.5
20260505064003 53 0 0.0 0.0 0.00 0.00 0.00 82 1016.3
20260505063103 52 0 0.0 0.0 0.00 0.00 0.00 81 1015.5
20260505063003 53 0 0.0 0.0 0.00 0.00 0.00 82 1016.3
20260505062024 53 0 0.0 0.0 0.00 0.00 0.00 81 1016.0
20260505061605 52 0 0.0 0.0 0.00 0.00 0.00 81 1015.3
20260505061003 53 0 0.0 0.0 0.00 0.00 0.00 82 1016.0
20260505060041 53 0 0.0 0.0 0.00 0.00 0.00 82 1015.1
20260505060003 53 0 0.0 0.0 0.00 0.00 0.00 82 1015.9
20260505055003 53 0 0.0 0.0 0.00 0.00 0.00 82 1016.0
20260505054541 53 0 0.0 0.0 0.00 0.00 0.00 82 1015.2
20260505054003 53 0 0.0 0.0 0.00 0.00 0.00 82 1016.1
20260505053042 53 0 0.0 2.6 0.00 0.00 0.00 82 1015.5
20260505053024 54 301 0.0 2.6 0.00 0.00 0.00 82 1016.3
20260505052024 54 298 0.0 4.3 0.00 0.00 0.00 81 1016.4
20260505051556 54 0 0.0 5.2 0.00 0.00 0.00 82 1015.6
20260505051003 54 331 0.0 5.2 0.00 0.00 0.00 83 1016.5